sat.trackr.live / text

‹ back to catalog

STARLINK-1480

NORAD 45741 · 2020-038M

PAYLOAD ACTIVE UNKNOWN

§ Identity

Operator
Country
US
Launch date
2020-06-13
Launch site
AFETR
Launch vehicle
Mass (kg)
RCS (m²)

Purposes: comms

External: N2YO · Heavens-Above · Gunter

§ Orbital elements

Epoch: 2026-05-25T04:11:46.957056Z

Period
92.10 min
Inclination
53.0489°
Eccentricity
0.0005922
Mean motion
15.63476833 rev/d
Perigee alt
373.6 km
Apogee alt
381.6 km
Semi-major
6,755.8 km
B*
7.0457e-4
RAAN
206.3135°
Arg perigee
346.6258°
Mean anomaly
13.4598°
Rev number
32,839

§ Raw data

STARLINK-14801 45741U 20038M   26145.17484904  .00066417  00000+0  70457-3 0  99982 45741  53.0489 206.3135 0005922 346.6258  13.4598 15.63476833328395

JSON: /api/v1/satellites/45741 · /tle

For live sub-satellite position, see the globe view (requires WebGL).

§ Visibility from observer

Set your observer location to see the next 7 days of passes ≥ 10°. The values pass through the URL so the page stays shareable.

No JS? Fill the form by hand. The geolocation button needs JavaScript.